Location: Ladrillo (historical)
(32.8195°N, 117.2231°W)
Time: 15:44:12
(UTC+00:00)

S-56A Canister/Altair - All Passes

Search period start: 27 February 2021 00:00
Search period end: 09 March 2021 00:00
Orbit: 632 x 2501 km, 38.9° (Epoch: 27 February)

Date Brightness Start Highest point End Pass type
(mag) Time Alt. Az. Time Alt. Az. Time Alt. Az.
27 Feb - 00:21:27 10° W 00:36:46 73° NNW 00:49:46 10° ENE daylight
27 Feb - 02:29:57 10° WNW 02:44:39 70° N 02:55:17 10° E visible
27 Feb - 04:38:07 10° WNW 04:50:56 73° SSW 04:59:24 10° SE visible
27 Feb - 06:47:16 10° W 06:54:19 21° SW 06:59:45 10° S visible
27 Feb - 19:40:11 10° S 19:50:23 28° SE 20:01:59 10° E daylight
27 Feb - 21:41:43 10° SW 21:55:37 70° SSE 22:10:23 10° ENE daylight
27 Feb - 23:47:47 10° W 00:02:59 75° NNW 00:16:37 10° ENE daylight
28 Feb - 01:56:03 10° WNW 02:11:05 69° N 02:22:24 10° E visible
28 Feb - 04:04:15 10° WNW 04:17:48 80° SSW 04:26:54 10° ESE visible
28 Feb - 06:13:00 10° W 06:21:40 27° SW 06:28:04 10° S visible
28 Feb - 19:08:10 10° S 19:17:14 24° SE 19:27:39 10° E daylight
28 Feb - 21:08:45 10° SW 21:22:02 64° SE 21:36:51 10° ENE daylight
28 Feb - 23:14:13 10° WSW 23:29:12 78° NNW 23:43:24 10° ENE daylight
01 Mar - 01:22:12 10° WNW 01:37:25 69° N 01:49:26 10° E daylight
01 Mar - 03:30:22 10° WNW 03:44:34 86° SSW 03:54:20 10° ESE visible
01 Mar - 05:38:51 10° WNW 05:48:56 33° SW 05:56:10 10° SSE visible
01 Mar - 18:36:28 10° SSE 18:44:10 19° SE 18:53:00 10° E daylight
01 Mar - 20:35:55 10° SW 20:48:32 58° SE 21:03:13 10° ENE daylight
01 Mar - 22:40:46 10° WSW 22:55:24 81° NNW 23:10:04 10° ENE daylight
02 Mar - 00:48:24 10° W 01:03:40 68° N 01:16:22 10° E daylight
02 Mar - 02:56:30 10° WNW 03:11:12 89° NNE 03:21:39 10° ESE visible
02 Mar - 05:04:47 10° WNW 05:16:06 40° SW 05:24:06 10° SSE visible
02 Mar - 18:05:15 10° SSE 18:11:12 15° SE 18:17:52 10° E daylight
02 Mar - 20:03:14 10° SSW 20:15:07 53° SE 20:29:30 10° ENE daylight
02 Mar - 22:07:27 10° WSW 22:21:37 85° NNW 22:36:39 10° ENE daylight
03 Mar - 00:14:40 10° W 00:29:52 68° N 00:43:13 10° E daylight
03 Mar - 02:22:40 10° WNW 02:37:44 85° NNE 02:48:52 10° ESE visible
03 Mar - 04:30:46 10° WNW 04:43:09 46° SW 04:51:54 10° SSE visible
03 Mar - 17:35:18 10° SE 17:38:17 11° ESE 17:41:29 10° ESE daylight
03 Mar - 19:30:41 10° SSW 19:41:47 47° SE 19:55:39 10° ENE daylight
03 Mar - 21:34:15 10° WSW 21:47:54 89° NNW 22:03:09 10° ENE daylight
03 Mar - 23:41:02 10° W 23:56:02 69° N 00:09:57 10° E daylight
04 Mar - 01:48:51 10° WNW 02:04:10 81° NNE 02:16:00 10° ESE visible
04 Mar - 03:56:48 10° WNW 04:10:07 53° SW 04:19:35 10° SE visible
04 Mar - 06:08:46 10° W 06:13:09 13° WSW 06:17:02 10° SSW visible
04 Mar - 18:58:16 10° SSW 19:08:34 41° SE 19:21:42 10° ENE daylight
04 Mar - 21:01:11 10° WSW 21:14:12 87° SSE 21:29:36 10° ENE daylight
04 Mar - 23:07:30 10° W 23:22:11 70° N 23:36:36 10° ENE daylight
05 Mar - 01:15:07 10° WNW 01:30:31 78° NNE 01:43:01 10° ESE daylight
05 Mar - 03:22:53 10° WNW 03:36:57 60° SW 03:47:08 10° SE visible
05 Mar - 05:33:24 10° W 05:40:26 17° SW 05:46:15 10° SSW visible
05 Mar - 18:26:01 10° SSW 18:35:27 35° SE 18:47:38 10° ENE daylight
05 Mar - 20:28:14 10° WSW 20:40:36 82° SSE 20:55:56 10° ENE daylight
05 Mar - 22:34:03 10° W 22:48:19 71° N 23:03:09 10° ENE daylight
06 Mar - 00:41:26 10° WNW 00:56:47 75° NNE 01:09:55 10° E daylight
06 Mar - 02:49:01 10° WNW 03:03:39 67° SW 03:14:34 10° SE visible
06 Mar - 04:58:40 10° W 05:07:38 22° SW 05:14:49 10° S visible
06 Mar - 17:53:56 10° S 18:02:27 30° SE 18:13:25 10° ENE daylight
06 Mar - 19:55:25 10° SW 20:07:05 76° SSE 20:22:12 10° ENE daylight
06 Mar - 22:00:44 10° W 22:14:29 72° N 22:29:38 10° ENE daylight
07 Mar - 00:07:49 10° WNW 00:22:59 73° NNE 00:36:43 10° E daylight
07 Mar - 02:15:13 10° WNW 02:30:16 73° SSW 02:41:53 10° SE visible
07 Mar - 04:24:12 10° W 04:34:44 27° SW 04:43:02 10° S visible
07 Mar - 17:22:04 10° S 17:29:33 24° SE 17:39:04 10° E daylight
07 Mar - 19:22:42 10° SW 19:33:40 70° SSE 19:48:24 10° ENE daylight
07 Mar - 21:27:31 10° W 21:40:41 74° NNW 21:56:01 10° ENE daylight
07 Mar - 23:34:17 10° WNW 23:49:09 71° N 00:03:24 10° E daylight
08 Mar - 01:41:29 10° WNW 01:56:46 79° SSW 02:09:05 10° SE daylight
08 Mar - 03:49:56 10° WNW 04:01:45 33° SW 04:11:01 10° S visible
08 Mar - 16:50:29 10° SSE 16:56:44 19° SE 17:04:28 10° E daylight
08 Mar - 18:50:07 10° SW 19:00:22 64° SE 19:14:33 10° ENE daylight
08 Mar - 20:54:24 10° W 21:06:56 76° NNW 21:22:19 10° ENE daylight
08 Mar - 23:00:50 10° WNW 23:15:18 70° N 23:29:59 10° E daylight
